map of XCR home
XCR - Airport
Location
City:  Châlons-en-Champagne, Champagne-Ardenne, France
Near (Alt.):Châlons-sur-Marne
Name:Châlons Vatry International Airport
ICAO:LFOK
IATA:XCR

Details
Type:Airport (Aerodrome, Airfield)
Use:Public/Civil, International (customs port of entry)
Latitude:48°46'24"N (48.773333)
Longitude:4°12'22"E (4.206111)
Elevation:587 ft (179 m)
Variation:1.44°E (WMM2015v2 magnetic declination)
0.17° annual change
Runways:1
Longest:12664 × 148 ft (3860 × 45 m), paved

Time
Time Zone:UTC+1 (DST+2)
Local Time:

Weather
METAR:LFOK 041400Z AUTO 18010KT CAVOK 03/00 Q1026 NOSIG
TAF:LFOK 041100Z 0412/0512 18008KT CAVOK
TEMPO 0418/0422 -SN
BECMG 0503/0505 BKN012

Related Locations
Nearby:
Farthest:CHT: 12086 mi / 19450 km
Waitangi [Tuuta], CIT, NZ

Find:

   beyond  
but within

Other Information
Maps:
NOTAMs:
Links:
Sources:

  
  • flag of France
  • flag of Champagne-Ardenne
  

Sectional Chart

Flight Planning
at skyvector.com

Satellite Image

Google Maps Satellite view

 

Copyright © 2004-2019 Karl L. Swartz. All rights reserved.
The Great Circle Mapper name and logo are trademarks of the Great Circle Mapper.
All other trademarks mentioned herein belong to their respective owners.
Please see credits for attibutions and further copyright information.

  Follow gcmap on Facebook Follow gcmap on Twitter GCmap on LinkedIn

hCard Microformat

Geo Microformat